Regional Weather Roundup
Issued by NWS

Home | Current Version | Previous Version | Graphics & Text | Print | Product List | Glossary On
Versions: 1 2 3 4 5 6 7 8 9 10 11 12 13 14 15 16 17 18 19 20 21 22 23 24 25 26 27 28 29 30 31 32 33 34 35 36 37 38 39 40 41 42 43 44 45 46 47 48 49 50
024
ASUS43 KLSX 241607
RWRMO

WEATHER SUMMARY FOR MISSOURI
NATIONAL WEATHER SERVICE SPRINGFIELD MO
1100 AM CDT MON JUL 24 2017

NOTE: "FAIR" INDICATES FEW OR NO CLOUDS BELOW 12,000 FEET WITH NO
       SIGNIFICANT WEATHER AND/OR OBSTRUCTIONS TO VISIBILITY.
       CURRENT SKY AND/OR WEATHER CONDITIONS ARE NOT AVAILABLE FOR
       CHILLICOTHE AND FARMINGTON.

MOZ001>031-035>038-043-044-053-054-241700-
...NORTHERN AND WESTERN MISSOURI...

CITY           SKY/WX    TMP DP  RH WIND       PRES   REMARKS
KANSAS CTY INT PTSUNNY   79  65  62 E5        30.03S
KANSAS C DTWN  MOSUNNY   80  67  64 E7        30.01F
LEE`S SUMMIT   MOSUNNY   79  67  66 E8        30.03S
ST JOSEPH      SUNNY     80  67  64 E6        30.02F
CHILLICOTHE      N/A     79  64  60 N5        30.03F
KIRKSVILLE     MOSUNNY   78  62  57 NE9       30.04S

$$
MOZ066>068-077>081-088>096-101>105-241700-
...SOUTHWEST MISSOURI...

CITY           SKY/WX    TMP DP  RH WIND       PRES   REMARKS
SPRINGFIELD    SUNNY     88  72  58 N6        30.00F HX  94
JOPLIN         SUNNY     88  74  63 CALM      30.00F HX  96
BRANSON        MOSUNNY   86  72  62 N5        30.03R HX  92

$$
MOZ032>034-039>042-045>050-055>058-069>072-241700-
...CENTRAL MISSOURI...

CITY           SKY/WX    TMP DP  RH WIND       PRES   REMARKS
COLUMBIA       MOSUNNY   81  65  58 NE6       30.01S
JEFFERSON CITY MOSUNNY   83  66  56 N8        29.98F
ROLLA          SUNNY     82  69  64 NE6       29.99S
SEDALIA        SUNNY     83  70  64 NE9       30.02S
WHITEMAN AFB   SUNNY     81  69  65 E5        30.00S
OSAGE BEACH    SUNNY     83  70  64 NW5       30.00S

$$
MOZ051-052-059>065-241700-
...EAST CENTRAL MISSOURI...

CITY           SKY/WX    TMP DP  RH WIND       PRES   REMARKS
ST LOUIS INTL  MOSUNNY   85  65  51 N6        29.98S
SPIRIT OF STL  SUNNY     84  66  54 NW6       29.96S
ST CHARLES     SUNNY     83  66  56 VRB6      29.97S

$$
MOZ072>076-082>087-097>100-106>115-241700-
...SOUTH CENTRAL AND SOUTHEAST MISSOURI...

CITY           SKY/WX    TMP DP  RH WIND       PRES   REMARKS
CAPE GIRARDEAU SUNNY     87  71  58 CALM      29.95R HX  93
FARMINGTON     SUNNY     84  72  67 NE5       29.99S
POPLAR BLUFF   SUNNY     86  76  71 VRB3      29.95S HX  96
WEST PLAINS    SUNNY     89  65  44 NE5       30.01S HX  91

$$



USA.gov is the U.S. government's official web portal to all federal, state and local government web resources and services.